Regional Weather Roundup
Issued by NWS Bismarck, ND

Home | Current Version | Previous Version | Text Only | Print | Product List | Glossary On
Versions: 1 2 3 4 5 6 7 8 9 10 11 12 13 14 15 16 17 18 19 20 21 22 23 24 25 26 27 28 29 30 31 32 33 34 35 36 37 38 39 40 41 42 43 44 45 46 47 48 49 50
000
ASUS43 KBIS 300610
RWRBIS

NWR BROADCAST TEXT
NATIONAL WEATHER SERVICE BISMARCK ND
100 AM CDT SAT APR 30 2016

NOTE: "FAIR" INDICATES FEW OR NO CLOUDS BELOW 12,000 FEET WITH NO
SIGNIFICANT WEATHER AND/OR OBSTRUCTIONS TO VISIBILITY.


CITY           SKY/WX    TMP DP  RH WIND       PRES   REMARKS
WILLISTON      CLEAR     45  27  49 E8        30.15S
MINOT          CLEAR     45  29  53 NE6       30.18R
MINOT AFB      CLEAR     44  29  54 NE6       30.18R
BISMARCK       CLEAR     42  34  73 NE9       30.13S
DICKINSON      PTCLDY    39  30  70 E8        30.09S
GARRISON         N/A     45  30  55 E12       30.15R
HETTINGER ARPT CLOUDY    35  31  85 CALM      30.10S
JAMESTOWN      CLEAR     45  32  60 NE13      30.12S
BEACH          CLOUDY    36  32  87 E8        30.13S
CARRINGTON     FAIR      45  30  57 E8        30.18R
HAZEN          FAIR      37  32  81 NE6       30.17R
MANDAN         FAIR      46  32  57 E15       30.13S
OAKES            N/A    N/A N/A N/A MISG        N/A
RUGBY          FAIR      37  30  75 E8        30.20R
STANLEY        FAIR      41  28  60 E5        30.19S
WATFORD CITY   FAIR      41  28  60 E9        30.15S
$$

CITY           SKY/WX    TMP DP  RH WIND       PRES   REMARKS
GRAND FORKS    CLEAR     47  32  56 NE10      30.17F
GRAND FORKS AF CLEAR     45  30  56 E9        30.18S
DEVILS LAKE    CLEAR     42  30  62 NE8       30.19S
FARGO          CLEAR     50  32  50 E13       30.12S
CANDO          FAIR      41  28  60 NE10      30.23R
CAVALIER       FAIR      45  32  61 N5        30.22R
GRAFTON        FAIR      39  32  75 N5        30.22R
GWINNER        FAIR      43  39  87 SE3       30.11R
LANGDON        FAIR      41  28  60 NE9       30.22S
ROLLA          MOCLDY    39  27  60 NE10      30.23S
WALHALLA       FAIR      37  34  87 NW6       30.24R
$$

CITY           SKY/WX    TMP DP  RH WIND       PRES   REMARKS
ABERDEEN       CLEAR     40  36  86 N3        30.10S
MOBRIDGE       MOCLDY    44  40  85 E6        30.06F
BUFFALO          N/A     40  33  76 NE5       30.01S
RAPID CITY     CLOUDY    40  37  89 N6        30.04F
GLASGOW        CLOUDY    46  35  65 E9        30.12R
SIDNEY         CLEAR     43  30  61 NE6       30.13S
WOLF POINT     CLOUDY    46  35  65 E8        30.13S
GLENDIVE       CLOUDY    45  37  76 N7        30.12F
MILES CITY     CLOUDY    47  36  65 NE8       30.08R
BAKER          CLOUDY    44  35  70 E5        30.08S
$$

CITY           SKY/WX    TMP DP  RH WIND       PRES   REMARKS
BILLINGS       CLOUDY    44  37  76 NE6       30.02F
GREAT FALLS    CLOUDY    40  34  79 E8        30.01R
REGINA         CLEAR     46  19  34 E18G24    30.20R
ESTEVAN        CLEAR     41  23  48 E12       30.20R
$$





USA.gov is the U.S. government's official web portal to all federal, state and local government web resources and services.